GFSFLT2_850_spd_066.txt.gz
Wind_Speed
16 20 24 24 28 30 28 22 28 37 36 32 29 27 26 24 23 21 21 21 23 26 26 26 28 32 32 29 23 20 14 14
12 22 23 23 23 30 23 25 25 30 40 34 31 27 26 25 22 21 22 23 25 27 26 27 31 31 32 25 23 15 11 15
12 17 21 17 20 19 20 22 38 26 38 35 32 30 27 24 23 24 25 26 26 26 26 28 28 29 30 27 21 14 18 12
11 12 13 13 13 16 12 12 21 35 39 38 35 33 29 28 26 28 28 27 26 25 26 27 28 31 28 23 23 18 13 9
12 13 12 13 14 9 17 19 18 23 36 38 36 34 32 30 30 30 29 27 27 25 26 27 33 29 24 19 20 13 11 9
11 11 12 13 10 9 13 17 21 37 35 37 34 36 34 31 33 33 32 29 28 26 27 25 30 21 13 16 21 13 11 10
10 13 13 11 9 3 6 18 16 39 38 32 35 37 35 32 35 34 32 31 28 27 23 18 19 14 15 20 15 15 11 10
13 13 14 8 7 6 7 19 23 37 36 29 34 33 31 31 37 35 33 29 29 26 20 19 17 15 18 19 14 13 9 8
13 18 14 8 10 11 15 15 19 30 41 38 34 35 28 33 37 36 31 27 28 22 21 20 19 16 17 18 16 15 11 8
15 13 12 9 12 18 15 17 17 32 35 40 36 34 29 29 33 33 29 23 22 20 24 21 20 18 17 18 16 18 14 11
17 16 13 11 10 13 16 18 24 30 41 38 42 41 31 30 29 27 29 27 25 23 22 22 22 20 18 16 16 16 20 15
15 16 13 15 12 10 12 15 20 34 40 45 39 39 35 30 25 33 31 24 27 21 22 22 22 20 16 17 18 16 16 16
18 18 17 18 15 16 12 17 37 39 38 43 48 39 39 35 26 30 29 27 27 24 23 22 18 21 20 20 18 16 15 20
21 23 20 18 16 16 17 23 34 38 39 41 46 41 45 37 33 33 34 28 27 28 24 23 18 22 20 21 18 18 24 23
20 23 23 17 19 21 22 25 33 37 36 37 39 44 42 40 33 26 27 28 26 27 27 24 26 25 26 20 16 14 21 24
18 18 25 22 24 27 25 34 39 43 43 39 39 39 42 40 38 33 31 31 30 26 24 28 25 27 29 28 23 15 9 10
19 19 22 24 27 30 28 35 35 41 44 44 42 40 41 40 41 39 36 35 29 31 30 31 30 26 27 30 27 24 20 12
25 24 18 28 28 31 33 34 36 44 51 49 45 44 45 47 37 41 36 36 36 32 31 31 32 33 28 27 25 25 26 27
22 27 23 25 32 32 31 34 37 41 49 52 50 49 49 50 42 43 40 39 39 36 36 36 34 32 29 26 30 30 27 23
26 28 27 27 32 36 34 34 34 40 41 48 54 54 57 55 52 50 44 44 41 39 38 39 32 34 33 34 32 30 28 30

GFSFLT2_850_spd_069.txt.gz
Wind_Speed
11 18 18 20 20 25 29 31 29 22 26 33 33 33 29 26 25 23 23 22 28 31 32 35 37 33 28 25 19 12 12 18
12 16 19 20 21 25 27 24 26 28 21 25 36 32 29 26 22 21 21 24 30 29 31 34 36 32 27 20 17 9 10 19
7 12 19 19 19 21 25 22 16 13 27 30 31 34 30 26 24 22 21 28 29 29 29 35 36 31 27 21 15 8 11 16
7 8 13 17 18 18 18 18 18 22 26 32 43 38 32 29 24 23 25 29 29 29 32 37 37 33 27 22 15 10 10 9
9 12 12 14 15 16 16 15 13 23 26 24 40 38 34 31 29 28 28 29 30 31 35 36 36 33 27 14 20 13 8 6
10 10 12 15 16 15 14 14 19 16 30 38 42 41 37 34 32 32 31 29 31 33 34 36 36 30 23 17 21 13 8 7
8 10 13 13 12 11 10 11 18 20 28 41 46 42 38 34 35 35 34 34 32 33 34 38 32 24 28 15 14 12 8 7
13 12 13 13 10 8 6 12 14 23 39 44 44 40 37 37 38 36 35 33 32 33 34 37 23 25 26 19 13 14 8 6
16 16 16 11 8 6 10 13 21 24 36 40 42 39 39 37 38 37 34 32 32 30 31 29 19 18 20 12 13 13 10 7
18 19 16 14 10 8 13 13 12 31 31 35 38 37 36 36 39 38 35 33 32 29 27 22 20 19 29 16 16 16 10 7
16 16 18 14 12 13 16 19 20 26 36 41 42 38 33 32 38 38 34 35 31 26 31 26 25 20 26 21 19 13 13 11
14 16 16 13 11 17 20 19 19 22 42 45 45 40 37 33 37 37 34 34 32 24 32 26 26 22 21 22 21 17 15 15
16 19 19 18 15 19 21 21 22 32 38 40 40 40 37 35 38 37 37 33 33 29 32 27 27 25 22 20 20 18 20 18
19 20 21 21 16 17 17 20 24 31 34 42 43 42 40 39 42 40 37 35 34 32 32 29 27 27 26 25 23 21 20 19
20 21 21 21 19 18 16 15 18 27 29 42 46 48 40 36 41 44 31 30 32 30 34 30 28 29 21 27 18 15 23 23
22 20 22 20 23 22 21 25 32 32 31 43 44 48 41 40 35 40 36 30 33 35 33 32 30 30 27 25 25 16 14 14
23 17 21 24 23 24 24 25 31 34 35 42 45 48 42 41 40 39 35 34 33 34 34 33 33 28 25 34 27 25 21 12
24 22 17 27 27 29 27 27 31 38 40 45 49 49 45 43 40 38 32 28 31 33 35 33 30 29 30 32 37 33 32 27
26 24 22 23 31 32 30 28 32 39 42 44 47 44 44 49 43 40 43 35 36 35 33 34 34 33 31 29 32 32 32 29
24 25 23 22 30 35 34 31 32 38 40 43 44 45 47 48 46 46 46 43 36 39 35 36 36 37 38 34 35 31 34 31

GFSFLT2_850_spd_072.txt.gz
Wind_Speed
13 15 18 20 20 20 27 31 33 26 20 21 20 27 25 29 28 27 26 23 35 36 38 36 32 27 22 18 16 12 10 17
11 15 19 22 24 24 25 29 26 25 18 23 24 22 25 28 27 26 25 24 37 39 38 33 28 25 22 19 13 9 10 18
8 10 15 20 22 22 25 25 26 26 28 29 21 26 31 30 28 27 25 30 38 39 38 33 27 24 21 18 13 7 13 19
11 11 13 17 21 20 21 19 15 31 36 25 34 26 37 35 30 27 27 34 37 39 39 32 25 25 24 19 12 11 15 16
12 12 12 14 19 20 20 21 22 29 33 32 37 34 39 36 32 28 30 37 37 40 40 33 27 26 23 19 14 14 12 13
13 15 15 15 15 16 17 20 22 26 29 35 32 39 41 38 35 32 35 36 37 39 43 36 32 27 18 19 15 12 7 10
13 13 13 12 15 16 18 19 20 22 27 35 32 39 46 42 37 35 37 37 38 42 44 40 35 22 15 19 17 12 6 7
10 11 10 11 12 13 14 18 19 23 25 35 32 51 52 44 41 38 38 38 38 42 44 41 37 23 19 19 15 12 9 7
12 13 15 14 14 13 13 12 15 22 28 30 39 49 46 44 41 40 39 38 40 42 42 40 34 24 21 18 13 13 11 7
16 16 16 16 13 12 11 11 14 15 26 44 45 47 44 42 40 40 39 37 39 41 43 38 35 27 20 19 16 17 10 8
18 19 18 17 14 11 14 11 11 22 36 40 40 39 39 39 38 39 38 37 39 40 45 32 34 28 20 18 18 18 12 10
17 22 20 20 16 16 18 15 15 23 28 30 35 36 36 38 40 40 38 39 38 39 43 32 28 25 22 19 19 17 15 13
19 21 21 21 18 18 22 24 23 27 27 33 39 40 38 38 39 40 39 40 39 37 36 31 29 26 29 20 18 16 15 15
19 20 22 20 17 17 26 25 26 26 28 33 40 41 41 38 39 41 39 41 40 34 36 37 34 30 33 29 23 20 20 19
21 18 18 21 20 16 20 24 24 27 30 41 45 44 39 38 39 44 42 42 42 35 37 38 36 34 30 32 19 14 23 24
21 19 18 21 21 21 22 23 28 31 35 38 32 39 40 38 38 41 43 40 40 39 36 39 36 37 37 32 26 20 16 16
24 20 16 21 22 21 23 21 20 22 27 33 38 43 42 40 38 40 44 44 41 37 36 36 37 35 37 34 35 23 16 23
25 23 18 18 23 22 23 21 20 21 27 29 31 40 42 38 37 40 41 44 36 35 39 39 34 35 35 33 29 31 28 29
28 25 22 18 24 23 24 24 22 23 26 28 31 40 46 44 37 35 38 42 30 27 30 38 38 35 37 36 34 32 31 32
29 27 25 21 22 27 28 27 26 24 26 30 36 44 46 48 42 39 36 35 32 36 35 34 39 39 38 39 37 36 34 32

GFSFLT2_850_spd_075.txt.gz
Wind_Speed
10 13 16 17 18 17 21 24 25 24 28 26 21 22 19 24 26 27 27 26 28 33 32 30 29 27 24 21 19 16 17 21
8 13 16 18 21 21 22 24 30 26 21 12 22 18 18 23 23 26 25 24 33 33 31 31 29 26 21 20 16 13 11 17
10 10 14 17 21 23 23 25 31 31 19 30 23 20 28 23 27 25 25 24 35 35 35 31 26 23 20 18 14 11 13 16
12 13 13 15 17 23 23 26 29 32 33 30 35 29 31 26 25 25 26 26 36 39 35 30 25 25 22 16 12 10 15 18
14 14 15 15 16 20 21 21 20 25 30 33 30 32 29 35 30 28 29 33 40 40 35 30 27 26 23 17 11 12 16 17
14 15 17 16 16 20 21 20 19 17 30 32 31 32 24 34 37 36 33 40 42 41 37 31 26 24 22 16 13 14 14 15
15 15 17 15 14 16 19 20 21 22 29 36 33 37 37 33 44 39 36 46 45 41 36 32 29 27 22 17 16 13 10 11
13 14 12 12 13 15 17 19 21 26 32 38 39 38 37 46 45 41 37 47 46 43 35 33 31 25 21 19 16 12 9 8
12 12 12 12 14 13 17 19 22 26 30 35 39 45 39 49 48 44 39 47 47 45 38 35 32 26 20 21 17 13 10 7
13 12 14 15 15 15 15 16 15 17 26 31 36 43 41 45 48 42 40 45 45 47 44 38 31 24 23 25 18 15 12 8
14 14 16 16 16 16 15 13 13 16 20 27 30 39 54 55 49 43 43 44 44 48 45 41 31 25 25 23 18 16 12 9
15 16 18 18 17 18 14 13 12 11 20 27 31 36 40 45 43 43 43 44 45 48 47 40 34 28 23 19 17 18 14 10
19 19 21 20 20 18 15 16 9 16 14 26 35 31 36 36 38 40 41 43 44 47 46 38 31 27 23 19 19 19 16 14
21 21 21 20 21 18 16 18 13 17 23 23 21 27 32 33 36 39 42 41 44 45 46 39 32 28 25 25 23 22 22 20
22 22 21 20 21 17 18 20 19 22 24 22 29 33 37 37 36 39 41 41 43 43 46 40 37 31 29 24 16 11 25 24
22 21 19 19 19 19 18 25 27 27 28 26 28 34 37 39 40 39 39 38 40 40 44 42 36 37 34 35 25 15 17 14
26 22 20 18 18 19 17 24 25 24 25 28 31 36 39 39 40 43 39 38 41 39 37 37 37 38 37 35 33 23 21 20
28 25 21 18 18 21 20 22 23 27 28 31 29 27 40 42 38 39 39 40 39 41 38 36 38 39 39 37 38 35 26 24
30 28 25 20 19 20 22 20 18 19 22 25 30 31 28 33 36 40 41 42 41 39 42 40 41 41 38 42 39 40 36 32
33 30 27 23 20 20 21 21 20 18 19 26 27 32 34 32 39 37 36 38 42 41 39 42 34 38 35 33 41 39 38 36